Weather in Roskoshnyy

Russia / Belgorod Oblast     51°12′18″N   37°20′12″E
temp.,
°C
wind,
m/s
gust,
m/s
humid.,
%
clouds,
%
prec.,
mm/h
press.,
hPa
HPBL,
m
14 april, wed
wed1400:00+11s4889100 0.0 1021288
03:00+10sse258978 0.0 1021211
06:00+8sse229452 0.1 102034
09:00+13se2369100 0.1 1019474
12:00+15se126396 0.4 1018972
15:00+18se253951 0.5 10162238
18:00+16e3644100 0.0 1015178
21:00+12sw3674100 0.1 1016174
15 april, thu
thu1500:00+11n2382100 0.1 101556
03:00+11sse2670100 0.2 1015157
06:00+11ne3773100 0.0 1014151
09:00+12se586715 0.1 1014705
12:00+15s565388 0.4 10131487
15:00+15s5652100 0.9 10131457
18:00+14ssw365618 0.1 1013238
21:00+11s227445 0.1 101427
16 april, fri
fri1600:00+10ese4984100 0.1 1013373
03:00+9sse358726 0.6 1014193
06:00+7sse34915 0.0 101475
09:00+11sse567338 0.0 1015773
12:00+14sse67506 0.1 10151592
15:00+13ssw5757100 0.2 10151337
18:00+10ssw476568 0.0 1017689
21:00+7ssw35744 0.0 1018109
17 april, sat
sat1700:00+6s228118 0.0 101917
03:00+5ssw2285100 0.0 102017
06:00+6sw2284100 0.0 102038
09:00+5w6893100 10.2 1018341
12:00+10nw3360100 0.0 10211142
15:00+11n3363100 0.1 10221044
18:00+10ne326999 0.1 1022310
21:00+7ne3485100 0.1 102395
18 april, sun
sun1800:00+5ne119182 0.0 102412
03:00+5nnw22925 0.0 102415
06:00+4ne23947 0.0 102454
09:00+9ese237989 0.0 1025639
12:00+9e4572100 0.1 1025672
15:00+13ene676650 0.1 10251126
18:00+12e68658 0.0 10251133
21:00+8e511845 0.0 1026381